Tracking 35237 objects as of 5-Sep-2026
HD Live streaming from Space Station
objects crossing your sky now

STARLINK-34357

Track STARLINK-34357 now!
10-day predictions
STARLINK-34357 is classified as:


NORAD ID: 64310
Int'l Code: 2025-123V
Launch date: June 8, 2025
Source: United States (US)
Launch site: AIR FORCE WESTERN TEST RANGE (AFWTR)
Your satellite tracking list
Your tracking list is empty




NASA's NSSDC Master Catalog

Two Line Element Set (TLE):
1 64310U 25123V   26247.91668981  .02796013  00000-0  96550-1 0  9990
2 64310  70.0013 102.3908 0003622 280.6352 288.0345 15.25801655  5776
Source of the keplerian elements: AFSPC